Location: Red Deer
(52.2681°N, 113.8112°W)
Time: 03:05:07
(UTC-07:00)

BlueWalker 3 - Pass Details

Date: 11 October 2023
Orbit: 489 x 504 km, 53.2° (Epoch: 29 November)

Event Time Altitude Azimuth Distance (km) Brightness Sun altitude
Rises 21:42:15 0° 246° (WSW) 2,555 6.1 -26.7°
Reaches altitude 10° 21:44:25 10° 244° (WSW) 1,677 5.0 -27.0°
Enters shadow 21:45:44 21° 242° (WSW) 1,163 4.1 -27.2°
